Location: Igloolik
(69.3800°N, 81.8000°W)
Time: 03:04:56
(UTC-05:00)

Amateur Radio Satellites - All Passes

Search period start: 17 August 2017 02:34
Search period end: 18 August 2017 02:34
Location: Igloolik, 69.3800°N, 81.8000°W

Satellite Date Start Highest point End Downlink Frequencies (MHz)
Time Altitude Azimuth
M-CUBED/EXP-1 PRIME 17 Aug 02:36:04 02:40:39 55° 320° (NW) 02:45:06 437.505
PRISM 17 Aug 02:48:22 02:51:23 20° 338° (NNW) 02:54:23 437.425
NANOSAT C BR1 17 Aug 02:49:16 02:53:11 39° 313° (NW) 02:57:05 145.865
POLYITAN 1 17 Aug 02:49:33 02:53:27 37° 313° (NW) 02:57:20 437.675
STRAND 1 17 Aug 02:49:34 02:53:41 25° 18° (NNE) 02:57:48 437.568
UNISAT 6 17 Aug 02:55:02 02:57:56 18° 343° (NNW) 03:00:51 437.425
FO-29 17 Aug 02:58:45 03:04:28 30° 353° (N) 03:09:39 435.910
Oscar 19 17 Aug 02:59:25 03:04:40 80° 113° (ESE) 03:09:54 437.125/150
KKS-1 17 Aug 03:04:14 03:08:41 66° 58° (ENE) 03:13:09 437.445
QB50P2 17 Aug 03:04:25 03:08:12 32° 318° (NW) 03:11:57 145.880/145.840
EO-79 17 Aug 03:06:49 03:10:34 32° 318° (NW) 03:14:20 145.935-145.965
UKube-1 17 Aug 03:17:16 03:18:48 12° 286° (WNW) 03:20:21 .
TIGRISAT 17 Aug 03:31:21 03:34:03 17° 351° (N) 03:36:44 435.000
BEESAT 17 Aug 03:34:45 03:38:54 29° 269° (W) 03:43:04 436.000
Gurwin Techsat 1B 17 Aug 03:36:26 03:41:48 88° 310° (NW) 03:47:10 435.225
SO-50 17 Aug 03:40:02 03:44:19 44° 168° (SSE) 03:48:38 436.795
DUCHIFAT 1 17 Aug 03:42:32 03:46:02 26° 324° (NW) 03:49:31 145.980
PCSat 17 Aug 03:51:49 03:57:15 70° 176° (S) 04:02:42 145.827
DOVE 4 17 Aug 03:54:13 03:56:29 13° 68° (ENE) 03:58:42 437.250
AIST 2D 17 Aug 03:54:17 03:56:04 14° 337° (NNW) 03:57:53 435.315
AO-7 17 Aug 03:54:59 04:02:59 45° 98° (E) 04:10:54 .
STARS 17 Aug 03:55:37 04:00:02 78° 63° (ENE) 04:04:28 437.465
MOZHAYETS 4 17 Aug 03:58:56 04:02:42 25° 273° (W) 04:06:29
BUGSAT 1 17 Aug 04:00:49 04:04:27 32° 316° (NW) 04:08:03 437.445
CUBESAT XI-V 17 Aug 04:05:15 04:09:48 49° 259° (W) 04:14:24 437.345
ITUPSAT 1 17 Aug 04:07:00 04:10:37 21° 276° (W) 04:14:15 437.325
ITAMSAT 1 17 Aug 04:08:56 04:13:58 46° 101° (E) 04:18:58 435.822/435.867
M-CUBED/EXP-1 PRIME 17 Aug 04:10:21 04:14:31 33° 342° (NNW) 04:18:38 437.505
YUBILEINY 17 Aug 04:21:53 04:30:10 49° 274° (W) 04:38:22 435.215
PRISM 17 Aug 04:22:57 04:25:31 16° 1° (N) 04:28:05 437.425
NANOSAT C BR1 17 Aug 04:25:03 04:28:07 20° 335° (NNW) 04:31:12 145.865
POLYITAN 1 17 Aug 04:25:23 04:28:26 20° 336° (NNW) 04:31:29 437.675
STRAND 1 17 Aug 04:27:13 04:32:00 41° 42° (NE) 04:36:47 437.568
UNISAT 6 17 Aug 04:30:48 04:33:27 16° 6° (N) 04:36:06 437.425
Oscar 19 17 Aug 04:38:54 04:43:51 45° 316° (NW) 04:48:47 437.125/150
QB50P2 17 Aug 04:40:12 04:43:06 18° 341° (NNW) 04:46:00 145.880/145.840
KKS-1 17 Aug 04:41:15 04:45:32 42° 260° (W) 04:49:49 437.445
FO-29 17 Aug 04:42:13 04:48:17 33° 18° (NNE) 04:53:45 435.910
EO-79 17 Aug 04:42:33 04:45:28 18° 340° (NNW) 04:48:21 145.935-145.965
LilacSat-2 17 Aug 04:51:17 04:52:22 11° 74° (ENE) 04:53:28 437.200
XW-2D 17 Aug 05:00:48 05:02:24 12° 76° (ENE) 05:03:58 145.860 - 145.880
TIGRISAT 17 Aug 05:06:43 05:09:31 17° 14° (NNE) 05:12:19 435.000
XW-2B 17 Aug 05:11:27 05:13:27 14° 79° (ENE) 05:15:27 145.730 - 145.750
Gurwin Techsat 1B 17 Aug 05:16:31 05:21:29 41° 320° (NW) 05:26:27 435.225
DUCHIFAT 1 17 Aug 05:18:02 05:20:43 17° 347° (NNW) 05:23:22 145.980
SO-50 17 Aug 05:20:00 05:24:19 44° 191° (S) 05:28:39 436.795
NUDT-PHONESAT 17 Aug 05:24:40 05:26:36 14° 79° (E) 05:28:33 437.300
AIST 2D 17 Aug 05:27:21 05:28:05 10° 360° (N) 05:28:48 435.315
XW-2C 17 Aug 05:29:58 05:32:35 17° 83° (E) 05:35:12 145.795 - 145.815
DOVE 4 17 Aug 05:31:06 05:35:42 36° 92° (E) 05:40:02 437.250
STARS 17 Aug 05:32:44 05:36:48 35° 264° (W) 05:40:52 437.465
PCSat 17 Aug 05:35:05 05:40:28 61° 200° (SSW) 05:45:50 145.827
BUGSAT 1 17 Aug 05:36:14 05:38:58 18° 339° (NNW) 05:41:41 437.445
M-CUBED/EXP-1 PRIME 17 Aug 05:44:06 05:48:08 29° 4° (N) 05:52:07 437.505
CUBESAT XI-V 17 Aug 05:45:13 05:48:18 17° 282° (WNW) 05:51:24 437.345
XW-2F 17 Aug 05:45:43 05:48:39 20° 87° (E) 05:51:34 145.980 - 146.000
CUTE-I 17 Aug 05:45:58 05:50:18 24° 84° (E) 05:54:36 437.470
AO-7 17 Aug 05:48:16 05:56:44 88° 128° (SE) 06:05:06 .
ITAMSAT 1 17 Aug 05:48:35 05:53:46 70° 304° (NW) 05:58:56 435.822/435.867
PRISM 17 Aug 05:56:34 05:59:40 20° 24° (NNE) 06:02:47 437.425
NANOSAT C BR1 17 Aug 06:00:12 06:02:42 16° 359° (N) 06:05:12 145.865
POLYITAN 1 17 Aug 06:00:34 06:03:04 16° 360° (N) 06:05:36 437.675
CUTE 1.7 + AOD 2 17 Aug 06:01:33 06:03:38 13° 74° (ENE) 06:05:44 437.475
UNISAT 6 17 Aug 06:05:43 06:09:05 23° 30° (NNE) 06:12:26 437.425
STRAND 1 17 Aug 06:05:49 06:10:58 87° 244° (WSW) 06:16:08 437.568
HO-68 17 Aug 06:13:33 06:19:06 23° 77° (ENE) 06:24:39 435.675
QB50P2 17 Aug 06:15:09 06:17:42 16° 4° (N) 06:20:15 145.880/145.840
EO-79 17 Aug 06:17:30 06:20:02 16° 4° (N) 06:22:34 145.935-145.965
Oscar 19 17 Aug 06:18:05 06:22:21 27° 340° (NNW) 06:26:38 437.125/150
KAITUO 1B 17 Aug 06:18:22 06:21:40 27° 92° (E) 06:24:59 145.475/437.950
YUBILEINY 17 Aug 06:18:41 06:25:04 24° 301° (WNW) 06:31:26 435.215
KKS-1 17 Aug 06:20:48 06:23:16 14° 283° (WNW) 06:25:44 437.445
LilacSat-2 17 Aug 06:24:11 06:27:46 35° 97° (E) 06:31:22 437.200
FO-29 17 Aug 06:25:33 06:32:27 51° 43° (NE) 06:38:35 435.910
XW-2D 17 Aug 06:33:58 06:37:37 39° 99° (E) 06:41:15 145.860 - 145.880
TIGRISAT 17 Aug 06:41:35 06:45:14 28° 38° (NE) 06:48:53 435.000
XW-2B 17 Aug 06:44:53 06:48:36 45° 101° (E) 06:52:18 145.730 - 145.750
DUCHIFAT 1 17 Aug 06:52:35 06:55:10 16° 10° (N) 06:57:46 145.980
Gurwin Techsat 1B 17 Aug 06:56:12 07:00:32 26° 344° (NNW) 07:04:53 435.225
SEEDS 17 Aug 06:57:25 07:00:38 20° 84° (E) 07:03:49 437.485
NUDT-PHONESAT 17 Aug 06:57:48 07:01:25 45° 101° (ESE) 07:05:03 437.300
AIST 2D 17 Aug 06:58:17 07:00:05 14° 23° (NNE) 07:01:54 435.315
SO-50 17 Aug 07:00:14 07:04:08 29° 214° (SW) 07:08:03 436.795
CUBEBUG 2 17 Aug 07:02:56 07:05:56 19° 83° (E) 07:08:56 437.445
XW-2C 17 Aug 07:03:44 07:07:33 59° 106° (ESE) 07:11:21 145.795 - 145.815
BEESAT 3 17 Aug 07:04:16 07:06:48 16° 132° (SE) 07:09:20 437.485
UWE-3 17 Aug 07:05:02 07:07:31 15° 79° (ENE) 07:10:00 435.000/436.395/437.385
DOVE 4 17 Aug 07:08:52 07:13:53 81° 297° (WNW) 07:18:36 437.250
BEESAT 2 17 Aug 07:09:58 07:10:55 11° 122° (ESE) 07:11:51 435.950
BUGSAT 1 17 Aug 07:10:52 07:13:10 15° 3° (N) 07:15:28 437.445
STARS 17 Aug 07:12:53 07:14:28 12° 287° (WNW) 07:16:03 437.465
M-CUBED/EXP-1 PRIME 17 Aug 07:17:29 07:21:48 38° 27° (NNE) 07:26:07 437.505
PCSat 17 Aug 07:18:23 07:23:18 35° 224° (SW) 07:28:12 145.827
XW-2F 17 Aug 07:19:35 07:23:25 72° 108° (ESE) 07:27:14 145.980 - 146.000
CUTE-I 17 Aug 07:26:00 07:31:21 65° 108° (ESE) 07:36:40 437.470
ITAMSAT 1 17 Aug 07:28:07 07:32:46 34° 328° (NNW) 07:37:24 435.822/435.867
PRISM 17 Aug 07:30:17 07:34:12 39° 47° (NE) 07:38:07 437.425
AO-85 17 Aug 07:31:59 07:34:35 17° 133° (SE) 07:37:13 145.980
Oscar 11 17 Aug 07:32:45 07:35:02 14° 75° (ENE) 07:37:19 .
XW-2A 17 Aug 07:34:14 07:37:01 23° 92° (E) 07:39:47 145.665 - 145.685
NANOSAT C BR1 17 Aug 07:34:17 07:37:14 19° 22° (NNE) 07:40:12 145.865
POLYITAN 1 17 Aug 07:34:41 07:37:42 19° 23° (NNE) 07:40:43 437.675
CUTE 1.7 + AOD 2 17 Aug 07:36:35 07:40:39 39° 97° (E) 07:44:43 437.475
UNISAT 6 17 Aug 07:41:00 07:45:09 48° 53° (NE) 07:49:17 437.425
AO-7 17 Aug 07:41:10 07:49:18 59° 331° (NNW) 07:57:25 .
STRAND 1 17 Aug 07:46:13 07:50:48 32° 268° (W) 07:55:24 437.568
QB50P2 17 Aug 07:49:11 07:52:23 21° 27° (NNE) 07:55:35 145.880/145.840
EO-79 17 Aug 07:51:30 07:54:41 21° 27° (NNE) 07:57:51 145.935-145.965
KAITUO 1B 17 Aug 07:52:18 07:56:06 83° 294° (WNW) 07:59:55 145.475/437.950
ZACube-1 17 Aug 07:54:20 07:57:31 21° 85° (E) 08:00:44 437.345
AAUSAT CUBESAT 2 17 Aug 07:55:58 07:59:36 27° 90° (E) 08:03:14 437.432
Oscar 19 17 Aug 07:56:30 08:00:31 23° 4° (N) 08:04:32 437.125/150
LilacSat-2 17 Aug 07:58:29 08:02:20 65° 298° (WNW) 08:06:10 437.200
HO-68 17 Aug 08:01:32 08:08:34 53° 103° (ESE) 08:15:34 435.675
XW-2D 17 Aug 08:08:13 08:12:00 58° 301° (WNW) 08:15:47 145.860 - 145.880
FO-29 17 Aug 08:09:57 08:17:20 85° 246° (WSW) 08:23:53 435.910
YUBILEINY 17 Aug 08:15:40 08:18:33 12° 331° (NNW) 08:21:26 435.215
TIGRISAT 17 Aug 08:17:13 08:21:30 69° 61° (ENE) 08:25:47 435.000
AO-73 17 Aug 08:18:06 08:21:38 26° 89° (E) 08:25:12 145.935
XW-2B 17 Aug 08:19:10 08:22:55 52° 302° (WNW) 08:26:39 145.730 - 145.750
DUCHIFAT 1 17 Aug 08:26:25 08:29:48 24° 33° (NNE) 08:33:12 145.980
AIST 2D 17 Aug 08:29:24 08:32:25 27° 45° (NE) 08:35:26 435.315
NUDT-PHONESAT 17 Aug 08:31:47 08:35:25 50° 303° (WNW) 08:39:03 437.300
SEEDS 17 Aug 08:32:51 08:37:07 63° 106° (ESE) 08:41:22 437.485
Gurwin Techsat 1B 17 Aug 08:35:05 08:39:18 24° 8° (N) 08:43:31 435.225
XW-2C 17 Aug 08:38:05 08:41:43 41° 307° (NW) 08:45:20 145.795 - 145.815
CUBEBUG 2 17 Aug 08:39:16 08:43:25 61° 106° (ESE) 08:47:33 437.445
BEESAT 3 17 Aug 08:39:50 08:43:29 32° 154° (SSE) 08:47:08 437.485
UWE-3 17 Aug 08:40:57 08:45:00 47° 101° (ESE) 08:49:05 435.000/436.395/437.385
SO-50 17 Aug 08:41:20 08:43:25 13° 237° (WSW) 08:45:31 436.795
BEESAT 2 17 Aug 08:44:09 08:47:31 25° 144° (SE) 08:50:53 435.950
BUGSAT 1 17 Aug 08:44:28 08:47:25 20° 26° (NNE) 08:50:21 437.445
DOVE 4 17 Aug 08:46:39 08:51:11 35° 320° (NW) 08:55:29 437.250
Max Valier Satellite 17 Aug 08:47:39 08:49:16 12° 78° (ENE) 08:50:53 145.860
M-CUBED/EXP-1 PRIME 17 Aug 08:51:12 08:55:51 74° 49° (NE) 09:00:32 437.505
XW-2F 17 Aug 08:53:54 08:57:25 36° 310° (NW) 09:00:56 145.980 - 146.000
PCSat 17 Aug 09:02:17 09:05:25 16° 248° (WSW) 09:08:32 145.827
PRISM 17 Aug 09:05:09 09:09:21 74° 249° (WSW) 09:13:33 437.425
CUTE-I 17 Aug 09:06:14 09:11:27 54° 311° (NW) 09:16:38 437.470
XW-2A 17 Aug 09:06:47 09:10:11 86° 297° (WNW) 09:13:35 145.665 - 145.685
ITAMSAT 1 17 Aug 09:07:08 09:11:14 24° 351° (N) 09:15:20 435.822/435.867
Oscar 11 17 Aug 09:08:11 09:12:21 41° 98° (E) 09:16:29 .
NANOSAT C BR1 17 Aug 09:08:18 09:12:07 35° 45° (NE) 09:15:57 145.865
POLYITAN 1 17 Aug 09:08:49 09:12:41 36° 46° (NE) 09:16:33 437.675
AO-85 17 Aug 09:10:30 09:14:05 34° 157° (SSE) 09:17:47 145.980
CUTE 1.7 + AOD 2 17 Aug 09:12:29 09:16:47 66° 299° (WNW) 09:21:03 437.475
UNISAT 6 17 Aug 09:17:39 09:21:56 57° 255° (WSW) 09:26:10 437.425
QB50P2 17 Aug 09:23:28 09:27:28 43° 50° (NE) 09:31:28 145.880/145.840
EO-79 17 Aug 09:25:45 09:29:44 42° 50° (NE) 09:33:43 145.935-145.965
KAITUO 1B 17 Aug 09:26:31 09:29:47 28° 316° (NW) 09:33:04 145.475/437.950
STRAND 1 17 Aug 09:29:50 09:31:39 12° 292° (WNW) 09:33:30 437.568
O/OREOS (USA 219) 17 Aug 09:29:53 09:31:20 11° 98° (E) 09:32:47 437.305
ZACube-1 17 Aug 09:30:24 09:34:35 66° 108° (ESE) 09:38:49 437.345
AAUSAT CUBESAT 2 17 Aug 09:31:22 09:35:36 88° 105° (ESE) 09:39:49 437.432
LilacSat-2 17 Aug 09:33:00 09:36:10 25° 321° (NW) 09:39:20 437.200
AO-7 17 Aug 09:33:20 09:41:13 48° 358° (N) 09:49:04 .
Oscar 19 17 Aug 09:34:16 09:38:44 30° 28° (NNE) 09:43:13 437.125/150
DELFI C3 17 Aug 09:40:34 09:44:08 30° 93° (E) 09:47:41 145.870
XW-2D 17 Aug 09:42:39 09:45:41 23° 323° (NW) 09:48:44 145.860 - 145.880
HO-68 17 Aug 09:49:36 09:56:47 77° 308° (NW) 10:03:56 435.675
EO-88 17 Aug 09:50:23 09:53:28 24° 91° (E) 09:56:32 145.990 - 145.960
XW-2B 17 Aug 09:53:35 09:56:32 21° 325° (NW) 09:59:29 145.730 - 145.750
AO-73 17 Aug 09:54:16 09:58:29 83° 114° (ESE) 10:02:44 145.935
TIGRISAT 17 Aug 09:54:30 09:58:32 38° 263° (W) 10:02:33 435.000
FO-29 17 Aug 09:56:23 10:03:10 39° 269° (W) 10:09:18 435.910
DUCHIFAT 1 17 Aug 10:00:49 10:04:55 55° 56° (NE) 10:09:02 145.980
AIST 2D 17 Aug 10:01:47 10:05:19 86° 67° (ENE) 10:08:52 435.315
LO-87 17 Aug 10:02:13 10:02:50 10° 76° (ENE) 10:03:27 145.935 - 145.965
NUDT-PHONESAT 17 Aug 10:05:55 10:08:43 20° 325° (NW) 10:11:32 437.300
SEEDS 17 Aug 10:08:42 10:12:46 44° 308° (NW) 10:16:50 437.485
XW-2C 17 Aug 10:12:30 10:15:13 19° 330° (NNW) 10:17:56 145.795 - 145.815
Gurwin Techsat 1B 17 Aug 10:13:27 10:18:13 34° 32° (NNE) 10:22:59 435.225
CUBEBUG 2 17 Aug 10:16:04 10:20:02 44° 308° (NW) 10:24:00 437.445
BEESAT 3 17 Aug 10:16:41 10:20:34 45° 177° (S) 10:24:26 437.485
UWE-3 17 Aug 10:17:33 10:21:38 54° 303° (WNW) 10:25:44 435.000/436.395/437.385
BUGSAT 1 17 Aug 10:18:14 10:22:02 39° 48° (NE) 10:25:50 437.445
Max Valier Satellite 17 Aug 10:20:32 10:24:04 41° 100° (E) 10:27:36 145.860
BEESAT 2 17 Aug 10:20:47 10:24:39 41° 166° (SSE) 10:28:31 435.950
DOVE 4 17 Aug 10:24:04 10:27:51 22° 344° (NNW) 10:31:31 437.250
M-CUBED/EXP-1 PRIME 17 Aug 10:26:07 10:30:32 43° 251° (WSW) 10:35:03 437.505
XW-2F 17 Aug 10:28:15 10:30:46 17° 333° (NNW) 10:33:19 145.980 - 146.000
RS-15 17 Aug 10:32:21 10:40:58 23° 97° (E) 10:49:31 29.354- 29.394
XW-2A 17 Aug 10:39:46 10:42:38 26° 315° (NW) 10:45:30 145.665 - 145.685
PRISM 17 Aug 10:41:56 10:45:18 23° 272° (W) 10:48:41 437.425
NANOSAT C BR1 17 Aug 10:43:24 10:47:37 86° 251° (WSW) 10:51:51 145.865
POLYITAN 1 17 Aug 10:44:03 10:48:17 81° 249° (WSW) 10:52:31 437.675
Oscar 11 17 Aug 10:44:25 10:48:45 65° 301° (WNW) 10:53:04 .
ITAMSAT 1 17 Aug 10:45:20 10:49:33 26° 15° (NNE) 10:53:45 435.822/435.867
CUTE-I 17 Aug 10:46:13 10:50:49 30° 335° (NNW) 10:55:24 437.470
CUTE 1.7 + AOD 2 17 Aug 10:48:30 10:52:08 27° 322° (NW) 10:55:47 437.475
AO-85 17 Aug 10:50:10 10:53:57 44° 180° (S) 10:57:55 145.980
UNISAT 6 17 Aug 10:56:32 10:59:33 18° 278° (W) 11:02:34 437.425
QB50P2 17 Aug 10:59:01 11:03:13 65° 253° (WSW) 11:07:26 145.880/145.840
KAITUO 1B 17 Aug 11:00:42 11:02:54 15° 339° (NNW) 11:05:07 145.475/437.950
EO-79 17 Aug 11:01:14 11:05:26 66° 252° (WSW) 11:09:40 145.935-145.965
O/OREOS (USA 219) 17 Aug 11:05:33 11:09:33 32° 121° (ESE) 11:13:35 437.305
ESTCUBE 1 17 Aug 11:06:14 11:09:57 24° 87° (E) 11:13:40 437.505/2401.250
ZACube-1 17 Aug 11:06:53 11:10:49 42° 310° (NW) 11:14:49 437.345
AAUSAT CUBESAT 2 17 Aug 11:07:00 11:10:49 34° 315° (NW) 11:14:37 437.432
LilacSat-2 17 Aug 11:07:21 11:09:28 14° 343° (NNW) 11:11:35 437.200
Oscar 19 17 Aug 11:12:22 11:17:26 57° 51° (NE) 11:22:32 437.125/150
DELFI C3 17 Aug 11:15:18 11:19:21 82° 296° (WNW) 11:23:22 145.870
XW-2D 17 Aug 11:16:53 11:18:52 14° 345° (NNW) 11:20:51 145.860 - 145.880
EO-88 17 Aug 11:23:55 11:27:37 90° 205° (SSW) 11:31:19 145.990 - 145.960
AO-7 17 Aug 11:24:59 11:33:04 55° 25° (NNE) 11:41:08 .
XW-2B 17 Aug 11:27:47 11:29:41 13° 348° (NNW) 11:31:34 145.730 - 145.750
AO-73 17 Aug 11:30:43 11:34:31 35° 314° (NW) 11:38:22 145.935
VELOX 1 17 Aug 11:31:41 11:34:15 15° 77° (ENE) 11:36:47 145.980
LO-87 17 Aug 11:33:58 11:37:19 36° 98° (E) 11:40:37 145.935 - 145.965
TIGRISAT 17 Aug 11:34:37 11:36:28 12° 286° (WNW) 11:38:18 435.000
AIST 2D 17 Aug 11:36:02 11:38:57 24° 269° (W) 11:41:54 435.315
DUCHIFAT 1 17 Aug 11:36:41 11:40:45 47° 258° (WSW) 11:44:49 145.980
HO-68 17 Aug 11:37:18 11:44:02 46° 333° (NNW) 11:50:46 435.675
NUDT-PHONESAT 17 Aug 11:39:52 11:41:34 13° 348° (NNW) 11:43:17 437.300
SEEDS 17 Aug 11:44:30 11:47:45 21° 331° (NNW) 11:50:59 437.485
FO-29 17 Aug 11:45:48 11:50:09 17° 294° (WNW) 11:54:15 435.910
XW-2C 17 Aug 11:46:33 11:48:18 13° 352° (N) 11:50:03 145.795 - 145.815
Gurwin Techsat 1B 17 Aug 11:52:22 11:57:40 69° 56° (NE) 12:02:59 435.225
CUBEBUG 2 17 Aug 11:52:51 11:55:58 21° 331° (NNW) 11:59:06 437.445
BUGSAT 1 17 Aug 11:53:13 11:57:18 71° 249° (WSW) 12:01:22 437.445
BEESAT 3 17 Aug 11:53:56 11:57:42 37° 200° (SSW) 12:01:26 437.485
UWE-3 17 Aug 11:54:12 11:57:31 24° 326° (NNW) 12:00:52 435.000/436.395/437.385
Max Valier Satellite 17 Aug 11:54:27 11:58:04 53° 302° (WNW) 12:01:40 145.860
BEESAT 2 17 Aug 11:58:05 12:01:58 43° 190° (S) 12:05:51 435.950
YUBILEINY 17 Aug 12:00:35 12:03:45 12° 31° (NNE) 12:06:55 435.215
DOVE 4 17 Aug 12:00:36 12:04:16 20° 8° (N) 12:07:48 437.250
XW-2F 17 Aug 12:02:06 12:03:45 13° 356° (N) 12:05:25 145.980 - 146.000
M-CUBED/EXP-1 PRIME 17 Aug 12:03:14 12:06:03 16° 273° (W) 12:08:55 437.505
SPROUT 17 Aug 12:10:43 12:14:17 25° 89° (E) 12:17:48 437.525
XW-2A 17 Aug 12:12:56 12:14:32 13° 337° (NNW) 12:16:07 145.665 - 145.685
NANOSAT C BR1 17 Aug 12:20:19 12:23:53 26° 269° (W) 12:27:29 145.865
Oscar 11 17 Aug 12:20:43 12:24:24 27° 323° (NW) 12:28:05 .
POLYITAN 1 17 Aug 12:21:10 12:24:41 25° 271° (W) 12:28:12 437.675
ITAMSAT 1 17 Aug 12:23:17 12:28:08 40° 39° (NE) 12:32:58 435.822/435.867
CUTE 1.7 + AOD 2 17 Aug 12:24:12 12:26:58 17° 345° (NNW) 12:29:44 437.475
CUTE-I 17 Aug 12:25:31 12:29:44 24° 359° (N) 12:33:56 437.470
AO-85 17 Aug 12:30:11 12:33:51 34° 203° (SSW) 12:37:42 145.980
KAITUO 1B 17 Aug 12:34:08 12:35:42 12° 2° (N) 12:37:16 145.475/437.950
QB50P2 17 Aug 12:36:37 12:39:47 20° 275° (W) 12:42:59 145.880/145.840
EO-79 17 Aug 12:38:46 12:41:58 21° 275° (W) 12:45:11 145.935-145.965
RS-15 17 Aug 12:39:00 12:50:17 45° 127° (SE) 13:01:27 29.354- 29.394
LilacSat-2 17 Aug 12:40:44 12:42:31 13° 6° (N) 12:44:18 437.200
AAUSAT CUBESAT 2 17 Aug 12:42:30 12:45:24 18° 338° (NNW) 12:48:18 437.432
ESTCUBE 1 17 Aug 12:42:56 12:47:31 72° 110° (ESE) 12:52:05 437.505/2401.250
ZACube-1 17 Aug 12:43:18 12:46:23 20° 332° (NNW) 12:49:30 437.345
O/OREOS (USA 219) 17 Aug 12:44:05 12:48:35 78° 146° (SE) 12:53:07 437.305
XW-2D 17 Aug 12:50:03 12:51:48 13° 9° (N) 12:53:35 145.860 - 145.880
DELFI C3 17 Aug 12:50:16 12:53:47 29° 317° (NW) 12:57:17 145.870
Oscar 19 17 Aug 12:51:46 12:56:53 58° 255° (WSW) 13:02:02 437.125/150
EO-88 17 Aug 12:57:48 13:01:01 29° 315° (NW) 13:04:15 145.990 - 145.960
XW-2B 17 Aug 13:00:47 13:02:37 13° 11° (N) 13:04:28 145.730 - 145.750
50 SAT 17 Aug 13:02:47 13:05:32 22° 91° (E) 13:08:15 437.505
AO-73 17 Aug 13:07:02 13:09:56 19° 337° (NNW) 13:12:51 145.935
LO-87 17 Aug 13:07:26 13:10:58 58° 300° (WNW) 13:14:28 145.935 - 145.965
VELOX 1 17 Aug 13:07:33 13:11:50 44° 100° (E) 13:16:06 145.980
UKube-1 17 Aug 13:09:27 13:12:41 20° 85° (E) 13:15:54 .
NUDT-PHONESAT 17 Aug 13:12:34 13:14:13 13° 11° (N) 13:15:54 437.300
DUCHIFAT 1 17 Aug 13:14:57 13:17:27 15° 281° (W) 13:19:55 145.980
AO-7 17 Aug 13:17:05 13:25:30 85° 52° (NE) 13:33:55 .
XW-2C 17 Aug 13:19:15 13:21:16 14° 15° (NNE) 13:23:17 145.795 - 145.815
SEEDS 17 Aug 13:19:47 13:22:17 15° 354° (N) 13:24:48 437.485
DX 1 17 Aug 13:22:25 13:26:15 28° 92° (E) 13:30:03 434.975-435.025
HO-68 17 Aug 13:24:17 13:30:44 38° 359° (N) 13:37:09 435.675
Max Valier Satellite 17 Aug 13:28:33 13:31:22 21° 324° (NW) 13:34:11 145.860
CUBEBUG 2 17 Aug 13:29:04 13:31:28 15° 355° (N) 13:33:51 437.445
BUGSAT 1 17 Aug 13:30:11 13:33:21 21° 273° (W) 13:36:31 437.445
UWE-3 17 Aug 13:30:28 13:32:56 16° 350° (N) 13:35:25 435.000/436.395/437.385
BEESAT 3 17 Aug 13:31:30 13:34:31 20° 222° (SW) 13:37:30 437.485
Gurwin Techsat 1B 17 Aug 13:32:46 13:37:56 48° 259° (W) 13:43:07 435.225
XW-2F 17 Aug 13:34:33 13:36:40 15° 19° (NNE) 13:38:49 145.980 - 146.000
BEESAT 2 17 Aug 13:35:39 13:39:09 28° 213° (SSW) 13:42:38 435.950
DOVE 4 17 Aug 13:36:27 13:40:48 28° 31° (NNE) 13:45:00 437.250
BEESAT 17 Aug 13:42:13 13:43:51 12° 70° (ENE) 13:45:29 436.000
SPROUT 17 Aug 13:46:31 13:50:49 80° 113° (ESE) 13:55:04 437.525
YUBILEINY 17 Aug 13:50:45 13:57:19 25° 60° (ENE) 14:03:51 435.215
Oscar 11 17 Aug 13:56:40 13:59:31 17° 346° (NNW) 14:02:22 .
CUTE 1.7 + AOD 2 17 Aug 13:58:57 14:01:34 16° 8° (N) 14:04:09 437.475
MOZHAYETS 4 17 Aug 14:01:09 14:03:24 13° 73° (ENE) 14:05:40
ITAMSAT 1 17 Aug 14:02:06 14:07:20 88° 56° (NE) 14:12:35 435.822/435.867
CUTE-I 17 Aug 14:04:06 14:08:40 29° 23° (NNE) 14:13:12 437.470
KAITUO 1B 17 Aug 14:06:10 14:08:32 16° 25° (NNE) 14:10:54 145.475/437.950
AO-85 17 Aug 14:10:37 14:13:25 18° 225° (SW) 14:16:18 145.980
LilacSat-2 17 Aug 14:12:59 14:15:40 18° 29° (NNE) 14:18:22 437.200
ITUPSAT 1 17 Aug 14:13:05 14:16:05 16° 78° (ENE) 14:19:04 437.325
AAUSAT CUBESAT 2 17 Aug 14:17:16 14:19:40 15° 1° (N) 14:22:03 437.432
ZACube-1 17 Aug 14:19:09 14:21:32 15° 356° (N) 14:23:55 437.345
ESTCUBE 1 17 Aug 14:19:54 14:24:14 43° 312° (NW) 14:28:33 437.505/2401.250
XW-2D 17 Aug 14:22:09 14:24:54 19° 31° (NNE) 14:27:39 145.860 - 145.880
O/OREOS (USA 219) 17 Aug 14:23:42 14:28:12 66° 348° (NNW) 14:32:43 437.305
DELFI C3 17 Aug 14:25:05 14:27:38 16° 340° (NNW) 14:30:11 145.870
EO-88 17 Aug 14:31:42 14:33:51 15° 337° (NNW) 14:36:00 145.990 - 145.960
XW-2B 17 Aug 14:32:54 14:35:45 20° 34° (NNE) 14:38:37 145.730 - 145.750
Oscar 19 17 Aug 14:33:20 14:37:16 22° 278° (W) 14:41:16 437.125/150
50 SAT 17 Aug 14:35:14 14:38:42 87° 124° (SE) 14:42:06 437.505
LO-87 17 Aug 14:41:08 14:43:54 21° 322° (NW) 14:46:41 145.935 - 145.965
AO-73 17 Aug 14:42:38 14:44:59 15° 0° (N) 14:47:21 145.935
VELOX 1 17 Aug 14:44:06 14:48:32 64° 303° (WNW) 14:52:56 145.980
NUDT-PHONESAT 17 Aug 14:44:19 14:47:03 20° 34° (NNE) 14:49:48 437.300
UKube-1 17 Aug 14:45:13 14:49:34 61° 108° (ESE) 14:53:51 .
RS-15 17 Aug 14:49:11 15:01:20 67° 157° (SSE) 15:13:13 29.354- 29.394
XW-2C 17 Aug 14:51:24 14:54:27 24° 38° (NE) 14:57:33 145.795 - 145.815
SEEDS 17 Aug 14:53:56 14:56:44 17° 18° (NNE) 14:59:33 437.485
DX 1 17 Aug 14:58:35 15:03:00 87° 113° (ESE) 15:07:24 434.975-435.025
Max Valier Satellite 17 Aug 15:02:31 15:04:11 13° 347° (NNW) 15:05:52 145.860
CUBEBUG 2 17 Aug 15:04:08 15:06:52 17° 19° (NNE) 15:09:36 437.445
UWE-3 17 Aug 15:05:37 15:08:09 16° 13° (NNE) 15:10:42 435.000/436.395/437.385
XW-2F 17 Aug 15:06:42 15:09:52 26° 41° (NE) 15:13:04 145.980 - 146.000
HO-68 17 Aug 15:10:42 15:17:23 45° 25° (NNE) 15:24:05 435.675
AO-7 17 Aug 15:10:52 15:19:00 52° 257° (WSW) 15:27:10 .
DOVE 4 17 Aug 15:12:42 15:17:49 54° 54° (NE) 15:22:44 437.250
BEESAT 2 17 Aug 15:14:06 15:15:51 12° 235° (SW) 15:17:35 435.950
Gurwin Techsat 1B 17 Aug 15:15:34 15:19:11 18° 283° (WNW) 15:22:51 435.225
XW-2A 17 Aug 15:16:06 15:17:39 13° 22° (NNE) 15:19:12 145.665 - 145.685
BEESAT 17 Aug 15:18:49 15:23:09 33° 94° (E) 15:27:27 436.000
SPROUT 17 Aug 15:22:36 15:26:33 37° 314° (NW) 15:30:27 437.525
Oscar 11 17 Aug 15:31:40 15:34:25 17° 10° (N) 15:37:10 .
CUTE 1.7 + AOD 2 17 Aug 15:32:54 15:36:17 23° 32° (NNE) 15:39:40 437.475
MOZHAYETS 4 17 Aug 15:37:33 15:41:52 38° 96° (E) 15:46:12
KAITUO 1B 17 Aug 15:38:21 15:41:42 32° 47° (NE) 15:45:06 145.475/437.950
ITAMSAT 1 17 Aug 15:42:37 15:47:23 35° 266° (W) 15:52:10 435.822/435.867
CUTE-I 17 Aug 15:42:47 15:47:59 51° 47° (NE) 15:53:10 437.470
YUBILEINY 17 Aug 15:43:56 15:52:18 51° 88° (E) 16:00:39 435.215
LilacSat-2 17 Aug 15:45:40 15:49:14 40° 52° (NE) 15:52:52 437.200
CUBESAT XI-V 17 Aug 15:46:47 15:50:25 21° 83° (E) 15:54:03 437.345
ITUPSAT 1 17 Aug 15:50:29 15:55:06 46° 101° (E) 15:59:43 437.325
AAUSAT CUBESAT 2 17 Aug 15:50:57 15:53:55 19° 24° (NNE) 15:56:54 437.432
ZACube-1 17 Aug 15:53:52 15:56:37 17° 19° (NNE) 15:59:22 437.345
XW-2D 17 Aug 15:54:49 15:58:25 43° 54° (NE) 16:02:04 145.860 - 145.880
ESTCUBE 1 17 Aug 15:56:43 16:00:16 23° 335° (NNW) 16:03:50 437.505/2401.250
DELFI C3 17 Aug 15:59:06 16:01:12 14° 3° (N) 16:03:18 145.870
O/OREOS (USA 219) 17 Aug 16:03:30 16:08:01 68° 14° (NNE) 16:12:33 437.305
EO-88 17 Aug 16:04:59 16:06:21 12° 360° (N) 16:07:42 145.990 - 145.960
XW-2B 17 Aug 16:05:40 16:09:19 48° 56° (NE) 16:13:02 145.730 - 145.750
50 SAT 17 Aug 16:08:08 16:11:07 28° 315° (NW) 16:14:05 437.505
LO-87 17 Aug 16:14:47 16:16:21 13° 345° (NNW) 16:17:56 145.935 - 145.965
NUDT-PHONESAT 17 Aug 16:16:46 16:20:20 48° 56° (NE) 16:23:57 437.300
AO-73 17 Aug 16:17:07 16:20:02 19° 24° (NNE) 16:22:58 145.935
KKS-1 17 Aug 16:17:23 16:20:33 19° 83° (E) 16:23:42 437.445
VELOX 1 17 Aug 16:20:41 16:24:30 28° 326° (NW) 16:28:17 145.980
UKube-1 17 Aug 16:21:24 16:25:35 47° 310° (NW) 16:29:44 .
XW-2C 17 Aug 16:24:26 16:28:11 62° 60° (ENE) 16:31:58 145.795 - 145.815
SEEDS 17 Aug 16:27:46 16:31:28 29° 41° (NE) 16:35:10 437.485
DX 1 17 Aug 16:34:56 16:38:58 36° 317° (NW) 16:42:58 434.975-435.025
Max Valier Satellite 17 Aug 16:35:15 16:36:47 12° 10° (N) 16:38:19 145.860
CUBEBUG 2 17 Aug 16:38:54 16:42:34 30° 42° (NE) 16:46:14 437.445
XW-2F 17 Aug 16:39:51 16:43:37 74° 63° (ENE) 16:47:25 145.980 - 146.000
UWE-3 17 Aug 16:40:09 16:43:37 26° 37° (NE) 16:47:03 435.000/436.395/437.385
XW-2A 17 Aug 16:46:43 16:49:32 25° 45° (NE) 16:52:21 145.665 - 145.685
DOVE 4 17 Aug 16:50:20 16:55:34 61° 256° (WSW) 17:00:36 437.250
BEESAT 17 Aug 16:56:39 17:01:28 87° 294° (WNW) 17:06:15 436.000
HO-68 17 Aug 16:57:27 17:04:34 73° 51° (NE) 17:11:44 435.675
SPROUT 17 Aug 16:58:33 17:01:38 20° 337° (NNW) 17:04:43 437.525
RS-15 17 Aug 17:00:58 17:13:14 72° 188° (S) 17:25:04 29.354- 29.394
Oscar 11 17 Aug 17:05:58 17:09:29 25° 33° (NNE) 17:13:00 .
STARS 17 Aug 17:06:55 17:10:18 21° 86° (E) 17:13:40 437.465
CUTE 1.7 + AOD 2 17 Aug 17:07:20 17:11:28 50° 55° (NE) 17:15:38 437.475
AO-7 17 Aug 17:07:29 17:13:57 24° 284° (WNW) 17:20:26 .
KAITUO 1B 17 Aug 17:11:45 17:15:30 81° 250° (WSW) 17:19:18 145.475/437.950
MOZHAYETS 4 17 Aug 17:14:48 17:19:24 73° 299° (WNW) 17:24:01
LilacSat-2 17 Aug 17:19:41 17:23:28 61° 254° (WSW) 17:27:18 437.200
CUTE-I 17 Aug 17:22:39 17:28:01 69° 250° (WSW) 17:33:24 437.470
CUBESAT XI-V 17 Aug 17:23:59 17:28:42 62° 106° (ESE) 17:33:24 437.345
AAUSAT CUBESAT 2 17 Aug 17:24:42 17:28:33 36° 47° (NE) 17:32:25 437.432
ITAMSAT 1 17 Aug 17:26:05 17:28:28 13° 290° (WNW) 17:30:50 435.822/435.867
ZACube-1 17 Aug 17:28:20 17:31:59 31° 42° (NE) 17:35:40 437.345
ITUPSAT 1 17 Aug 17:28:27 17:33:12 65° 304° (NW) 17:37:56 437.325
XW-2D 17 Aug 17:28:54 17:32:37 54° 255° (WSW) 17:36:23 145.860 - 145.880
DELFI C3 17 Aug 17:31:59 17:34:48 19° 26° (NNE) 17:37:37 145.870
ESTCUBE 1 17 Aug 17:32:53 17:35:56 18° 358° (N) 17:38:59 437.505/2401.250
EO-88 17 Aug 17:36:42 17:38:50 15° 23° (NNE) 17:40:58 145.990 - 145.960
XW-2B 17 Aug 17:39:56 17:43:36 48° 258° (WSW) 17:47:19 145.730 - 145.750
YUBILEINY 17 Aug 17:40:01 17:48:51 81° 295° (WNW) 17:57:40 435.215
50 SAT 17 Aug 17:41:09 17:42:59 14° 337° (NNW) 17:44:50 437.505
O/OREOS (USA 219) 17 Aug 17:43:04 17:47:36 73° 217° (SW) 17:52:08 437.305
LO-87 17 Aug 17:47:20 17:48:34 11° 8° (N) 17:49:48 145.935 - 145.965
NUDT-PHONESAT 17 Aug 17:50:44 17:54:19 47° 258° (WSW) 17:57:56 437.300
AO-73 17 Aug 17:51:39 17:55:28 36° 47° (NE) 17:59:18 145.935
KKS-1 17 Aug 17:53:38 17:58:04 56° 105° (ESE) 18:02:26 437.445
VELOX 1 17 Aug 17:56:50 17:59:56 19° 349° (N) 18:03:02 145.980
UKube-1 17 Aug 17:57:29 18:00:56 23° 333° (NNW) 18:04:23 .
XW-2C 17 Aug 17:59:05 18:02:37 36° 263° (W) 18:06:11 145.795 - 145.815
STRAND 1 17 Aug 18:02:06 18:04:43 14° 72° (ENE) 18:07:18 437.568
SEEDS 17 Aug 18:02:31 18:06:46 75° 62° (ENE) 18:11:03 437.485
Max Valier Satellite 17 Aug 18:06:56 18:09:33 19° 32° (NNE) 18:12:11 145.860
DX 1 17 Aug 18:11:03 18:14:19 21° 340° (NNW) 18:17:34 434.975-435.025
CUBEBUG 2 17 Aug 18:14:38 18:18:53 80° 65° (ENE) 18:23:04 437.445
XW-2F 17 Aug 18:14:43 18:18:06 30° 266° (W) 18:21:31 145.980 - 146.000
UWE-3 17 Aug 18:15:28 18:19:35 63° 59° (ENE) 18:23:43 435.000/436.395/437.385
XW-2A 17 Aug 18:18:37 18:21:58 85° 66° (ENE) 18:25:21 145.665 - 145.685
DOVE 4 17 Aug 18:30:03 18:34:10 23° 278° (W) 18:38:11 437.250
SPROUT 17 Aug 18:33:47 18:36:22 16° 0° (N) 18:38:57 437.525
BEESAT 17 Aug 18:34:35 18:38:57 37° 320° (NW) 18:43:20 436.000
Oscar 11 17 Aug 18:40:48 18:45:01 55° 56° (NE) 18:49:17 .
STARS 17 Aug 18:43:04 18:47:28 65° 109° (ESE) 18:51:49 437.465
CUTE 1.7 + AOD 2 17 Aug 18:43:11 18:47:23 54° 257° (WSW) 18:51:37 437.475
HO-68 17 Aug 18:45:39 18:52:42 57° 255° (WSW) 18:59:47 435.675
KAITUO 1B 17 Aug 18:47:04 18:50:04 22° 271° (W) 18:53:06 145.475/437.950
MOZHAYETS 4 17 Aug 18:52:06 18:56:09 31° 322° (NW) 19:00:12
LilacSat-2 17 Aug 18:55:51 18:58:31 18° 276° (W) 19:01:12 437.200
AAUSAT CUBESAT 2 17 Aug 18:59:37 19:03:49 80° 251° (WSW) 19:08:03 437.432
CUBESAT XI-V 17 Aug 19:01:32 19:06:06 50° 308° (NW) 19:10:40 437.345
ZACube-1 17 Aug 19:03:48 19:07:58 83° 64° (ENE) 19:12:09 437.345
CUTE-I 17 Aug 19:04:30 19:08:59 26° 274° (W) 19:13:28 437.470
DELFI C3 17 Aug 19:05:04 19:08:47 37° 49° (NE) 19:12:32 145.870
XW-2D 17 Aug 19:05:13 19:07:38 16° 278° (W) 19:10:04 145.860 - 145.880
FO-29 17 Aug 19:05:22 19:06:46 11° 54° (NE) 19:08:08 435.910
ITUPSAT 1 17 Aug 19:06:23 19:10:32 30° 327° (NNW) 19:14:42 437.325
ESTCUBE 1 17 Aug 19:08:06 19:11:34 22° 22° (NNE) 19:15:00 437.505/2401.250
EO-88 17 Aug 19:08:27 19:11:39 29° 45° (NE) 19:14:52 145.990 - 145.960
RS-15 17 Aug 19:12:59 19:24:46 56° 219° (SW) 19:36:06 29.354- 29.394
50 SAT 17 Aug 19:13:41 19:14:32 11° 359° (N) 19:15:23 437.505
XW-2B 17 Aug 19:16:35 19:18:42 14° 280° (W) 19:20:50 145.730 - 145.750
LO-87 17 Aug 19:18:30 19:20:54 17° 30° (NNE) 19:23:17 145.935 - 145.965
O/OREOS (USA 219) 17 Aug 19:22:37 19:26:34 30° 241° (WSW) 19:30:31 437.305
NUDT-PHONESAT 17 Aug 19:27:08 19:29:06 14° 280° (W) 19:31:05 437.300
AO-73 17 Aug 19:27:23 19:31:33 78° 251° (WSW) 19:35:44 145.935
KKS-1 17 Aug 19:30:21 19:34:42 52° 308° (NW) 19:39:01 437.445
VELOX 1 17 Aug 19:32:04 19:35:11 19° 12° (NNE) 19:38:19 145.980
UKube-1 17 Aug 19:33:01 19:35:53 18° 356° (N) 19:38:45 .
XW-2C 17 Aug 19:36:44 19:37:55 11° 285° (WNW) 19:39:05 145.795 - 145.815
YUBILEINY 17 Aug 19:38:29 19:46:54 47° 324° (NW) 19:55:18 435.215
SEEDS 17 Aug 19:38:57 19:42:50 34° 266° (W) 19:46:45 437.485
Max Valier Satellite 17 Aug 19:39:15 19:42:46 44° 55° (NE) 19:46:18 145.860
STRAND 1 17 Aug 19:40:38 19:45:24 37° 95° (E) 19:50:09 437.568
DX 1 17 Aug 19:46:25 19:49:21 18° 4° (N) 19:52:17 434.975-435.025
CUBEBUG 2 17 Aug 19:52:09 19:55:57 31° 266° (W) 19:59:43 437.445
UWE-3 17 Aug 19:52:22 19:56:19 40° 262° (W) 20:00:16 435.000/436.395/437.385
XW-2A 17 Aug 19:52:22 19:55:08 23° 268° (W) 19:57:55 145.665 - 145.685
SPROUT 17 Aug 20:08:01 20:11:06 20° 23° (NNE) 20:14:12 437.525
BEESAT 17 Aug 20:12:11 20:15:51 23° 343° (NNW) 20:19:32 436.000
Oscar 11 17 Aug 20:17:05 20:21:18 50° 258° (WSW) 20:25:34 .
STARS 17 Aug 20:19:34 20:23:46 45° 311° (NW) 20:27:57 437.465
CUTE 1.7 + AOD 2 17 Aug 20:21:15 20:24:09 18° 280° (W) 20:27:04 437.475
MOZHAYETS 4 17 Aug 20:29:04 20:32:20 20° 345° (NNW) 20:35:37
HO-68 17 Aug 20:36:18 20:42:02 25° 281° (W) 20:47:48 435.675
AAUSAT CUBESAT 2 17 Aug 20:36:25 20:39:54 25° 272° (W) 20:43:24 437.432
CUBESAT XI-V 17 Aug 20:38:56 20:42:47 25° 331° (NNW) 20:46:37 437.345
DELFI C3 17 Aug 20:39:24 20:43:25 73° 250° (WSW) 20:47:28 145.870
ZACube-1 17 Aug 20:41:04 20:44:44 30° 268° (W) 20:48:26 437.345
EO-88 17 Aug 20:41:24 20:45:03 90° 208° (SSW) 20:48:46 145.990 - 145.960
ESTCUBE 1 17 Aug 20:43:18 20:47:32 39° 45° (NE) 20:51:46 437.505/2401.250
ITUPSAT 1 17 Aug 20:43:49 20:47:22 21° 350° (N) 20:50:54 437.325
50 SAT 17 Aug 20:44:17 20:46:05 14° 22° (NNE) 20:47:51 437.505
FO-29 17 Aug 20:49:06 20:54:25 27° 81° (E) 20:59:15 435.910
LO-87 17 Aug 20:50:17 20:53:39 38° 52° (NE) 20:57:00 145.935 - 145.965
UNISAT 6 17 Aug 20:54:55 20:57:21 15° 78° (ENE) 20:59:47 437.425
O/OREOS (USA 219) 17 Aug 21:03:58 21:04:43 10° 263° (W) 21:05:28 437.305
AO-73 17 Aug 21:05:03 21:08:26 24° 272° (W) 21:11:51 145.935
VELOX 1 17 Aug 21:06:48 21:10:39 29° 36° (NE) 21:14:30 145.980
KKS-1 17 Aug 21:06:58 21:10:39 25° 331° (NNW) 21:14:17 437.445
UKube-1 17 Aug 21:07:35 21:10:46 20° 20° (NNE) 21:13:58 .
Max Valier Satellite 17 Aug 21:13:03 21:16:39 51° 257° (WSW) 21:20:15 145.860
SEEDS 17 Aug 21:18:29 21:19:50 11° 289° (WNW) 21:21:11 437.485
STRAND 1 17 Aug 21:19:57 21:25:05 82° 301° (WNW) 21:30:13 437.568
DX 1 17 Aug 21:20:58 21:24:27 24° 27° (NNE) 21:27:57 434.975-435.025
RS-15 17 Aug 21:24:49 21:34:53 32° 249° (WSW) 21:44:37 29.354- 29.394
TIGRISAT 17 Aug 21:30:46 21:34:04 21° 86° (E) 21:37:22 435.000
UWE-3 17 Aug 21:31:59 21:33:56 13° 285° (WNW) 21:35:53 435.000/436.395/437.385
CUBEBUG 2 17 Aug 21:33:38 21:33:56 10° 290° (WNW) 21:34:15 437.445
YUBILEINY 17 Aug 21:38:06 21:46:04 36° 355° (N) 21:53:59 435.215
SPROUT 17 Aug 21:42:16 21:46:12 37° 46° (NE) 21:50:09 437.525
BEESAT 17 Aug 21:48:59 21:52:28 21° 7° (N) 21:55:58 436.000
Oscar 11 17 Aug 21:55:42 21:58:27 16° 281° (W) 22:01:15 .
STARS 17 Aug 21:55:57 21:59:25 23° 334° (NNW) 22:02:52 437.465
MOZHAYETS 4 17 Aug 22:05:07 22:08:16 19° 9° (N) 22:11:25
PRISM 17 Aug 22:07:21 22:10:56 27° 92° (E) 22:14:30 437.425
50 SAT 17 Aug 22:14:59 22:17:55 27° 44° (NE) 22:20:52 437.505
DELFI C3 17 Aug 22:15:40 22:18:51 22° 273° (W) 22:22:02 145.870
CUBESAT XI-V 17 Aug 22:15:46 22:19:01 19° 355° (N) 22:22:15 437.345
EO-88 17 Aug 22:16:11 22:19:13 24° 269° (W) 22:22:17 145.990 - 145.960
ESTCUBE 1 17 Aug 22:19:35 22:24:09 82° 246° (WSW) 22:28:45 437.505/2401.250
ITUPSAT 1 17 Aug 22:20:24 22:24:01 22° 14° (NNE) 22:27:39 437.325
LO-87 17 Aug 22:23:27 22:27:01 59° 254° (WSW) 22:30:36 145.935 - 145.965
QB50P2 17 Aug 22:30:27 22:31:50 11° 73° (ENE) 22:33:12 145.880/145.840
UNISAT 6 17 Aug 22:31:02 22:35:10 45° 101° (E) 22:39:18 437.425
HO-68 17 Aug 22:32:10 22:32:49 10° 308° (NW) 22:33:27 435.675
EO-79 17 Aug 22:32:37 22:33:49 11° 72° (ENE) 22:35:01 145.935-145.965
FO-29 17 Aug 22:34:20 22:40:45 69° 108° (ESE) 22:46:24 435.910
UKube-1 17 Aug 22:42:00 22:45:58 35° 42° (NE) 22:49:55 .
VELOX 1 17 Aug 22:42:11 22:46:38 66° 58° (ENE) 22:51:05 145.980
KKS-1 17 Aug 22:43:04 22:46:07 18° 354° (N) 22:49:11 437.445
AIST 2D 17 Aug 22:46:07 22:48:33 17° 85° (E) 22:51:01 435.315
Max Valier Satellite 17 Aug 22:49:12 22:51:19 15° 279° (W) 22:53:28 145.860
DX 1 17 Aug 22:55:45 22:59:57 46° 50° (NE) 23:04:11 434.975-435.025
STRAND 1 17 Aug 22:59:15 23:03:56 37° 322° (NW) 23:08:37 437.568
DUCHIFAT 1 17 Aug 23:06:21 23:08:46 15° 79° (ENE) 23:11:11 145.980
TIGRISAT 17 Aug 23:07:16 23:11:32 67° 108° (ESE) 23:15:49 435.000
SPROUT 17 Aug 23:17:39 23:21:56 79° 249° (WSW) 23:26:14 437.525
BEESAT 17 Aug 23:25:09 23:29:12 29° 30° (NNE) 23:33:16 436.000
M-CUBED/EXP-1 PRIME 17 Aug 23:25:09 23:28:42 21° 94° (E) 23:32:09 437.505
STARS 17 Aug 23:31:43 23:34:39 18° 358° (N) 23:37:35 437.465
YUBILEINY 17 Aug 23:37:11 23:45:24 41° 26° (NNE) 23:53:34 435.215
RS-15 17 Aug 23:37:56 23:42:59 14° 279° (W) 23:47:59 29.354- 29.394
MOZHAYETS 4 17 Aug 23:40:32 23:44:21 27° 32° (NNE) 23:48:11
PRISM 17 Aug 23:42:33 23:46:46 87° 119° (ESE) 23:50:56 437.425
50 SAT 17 Aug 23:46:52 23:50:19 86° 67° (ENE) 23:53:46 437.505
NANOSAT C BR1 17 Aug 23:48:55 23:52:28 26° 90° (E) 23:56:00 145.865
POLYITAN 1 17 Aug 23:50:08 23:53:47 28° 91° (E) 23:57:25 437.675
CUBESAT XI-V 17 Aug 23:51:39 23:55:09 21° 19° (NNE) 23:58:40 437.345
Gurwin Techsat 1B 17 Aug 23:55:21 23:56:19 10° 63° (ENE) 23:57:16 435.225
PCSat 17 Aug 23:56:36 00:00:50 24° 123° (ESE) 00:05:05 145.827
ITUPSAT 1 17 Aug 23:56:38 00:00:55 34° 38° (NE) 00:05:14 437.325
ESTCUBE 1 17 Aug 23:57:43 00:01:36 27° 271° (W) 00:05:30 437.505/2401.250
LO-87 17 Aug 23:58:49 00:01:11 16° 276° (W) 00:03:33 145.935 - 145.965
QB50P2 18 Aug 00:05:00 00:08:54 34° 96° (E) 00:12:47 145.880/145.840
EO-79 18 Aug 00:07:01 00:10:53 34° 96° (E) 00:14:43 145.935-145.965
UNISAT 6 18 Aug 00:07:52 00:12:06 59° 303° (WNW) 00:16:19 437.425
UKube-1 18 Aug 00:17:22 00:21:44 89° 256° (WSW) 00:26:07 .
KKS-1 18 Aug 00:18:14 00:21:31 21° 18° (NNE) 00:24:49 437.445
AIST 2D 18 Aug 00:18:53 00:22:26 64° 107° (ESE) 00:25:59 435.315
VELOX 1 18 Aug 00:19:06 00:23:22 42° 261° (W) 00:27:38 145.980
FO-29 18 Aug 00:19:33 00:25:52 55° 314° (NW) 00:31:26 435.910
DX 1 18 Aug 00:31:46 00:36:08 63° 252° (WSW) 00:40:31 434.975-435.025
STRAND 1 18 Aug 00:38:09 00:42:11 24° 346° (NNW) 00:46:13 437.568
DUCHIFAT 1 18 Aug 00:41:25 00:45:28 46° 101° (ESE) 00:49:31 145.980
TIGRISAT 18 Aug 00:44:09 00:48:11 42° 311° (NW) 00:52:13 435.000
SO-50 18 Aug 00:47:01 00:50:01 18° 131° (SE) 00:53:03 436.795
Oscar 19 18 Aug 00:48:18 00:52:20 22° 82° (E) 00:56:19 437.125/150
SPROUT 18 Aug 00:54:56 00:58:29 25° 271° (W) 01:02:02 437.525
BUGSAT 1 18 Aug 00:55:48 00:59:21 28° 93° (E) 01:02:51 437.445
M-CUBED/EXP-1 PRIME 18 Aug 00:59:21 01:03:59 60° 116° (ESE) 01:08:25 437.505
BEESAT 18 Aug 01:01:44 01:06:25 59° 54° (NE) 01:11:06 436.000
AO-7 18 Aug 01:02:19 01:05:52 13° 55° (NE) 01:09:24 .
STARS 18 Aug 01:06:34 01:09:51 21° 21° (NNE) 01:13:09 437.465
MOZHAYETS 4 18 Aug 01:16:27 01:20:56 57° 55° (NE) 01:25:28
PRISM 18 Aug 01:18:00 01:21:48 34° 316° (NW) 01:25:36 437.425
50 SAT 18 Aug 01:20:34 01:23:26 24° 267° (W) 01:26:17 437.505
NANOSAT C BR1 18 Aug 01:24:32 01:28:46 84° 114° (ESE) 01:32:59 145.865
POLYITAN 1 18 Aug 01:25:53 01:30:07 89° 112° (ESE) 01:34:20 437.675
CUBESAT XI-V 18 Aug 01:27:20 01:31:36 36° 42° (NE) 01:35:55 437.345
Gurwin Techsat 1B 18 Aug 01:33:34 01:38:10 28° 88° (E) 01:42:45 435.225
ITUPSAT 1 18 Aug 01:33:37 01:38:23 79° 62° (ENE) 01:43:12 437.325
YUBILEINY 18 Aug 01:35:07 01:43:53 67° 56° (NE) 01:52:34 435.215
PCSat 18 Aug 01:38:07 01:43:20 48° 147° (SSE) 01:48:32 145.827
QB50P2 18 Aug 01:40:50 01:45:03 74° 298° (WNW) 01:49:16 145.880/145.840
EO-79 18 Aug 01:42:48 01:47:01 76° 299° (WNW) 01:51:14 145.935-145.965
UNISAT 6 18 Aug 01:44:46 01:48:18 25° 326° (NW) 01:51:49 437.425
AIST 2D 18 Aug 01:52:16 01:55:32 35° 308° (NW) 01:58:49 435.315
KKS-1 18 Aug 01:53:09 01:57:13 34° 41° (NE) 02:01:16 437.445
UKube-1 18 Aug 01:54:30 01:58:18 29° 267° (W) 02:02:07 .
VELOX 1 18 Aug 01:58:33 02:00:59 14° 284° (WNW) 02:03:26 145.980
ITAMSAT 1 18 Aug 02:00:57 02:03:13 13° 70° (ENE) 02:05:28 435.822/435.867
FO-29 18 Aug 02:04:18 02:10:05 33° 340° (NNW) 02:15:17 435.910
DX 1 18 Aug 02:09:50 02:13:09 21° 275° (W) 02:16:30 434.975-435.025
STRAND 1 18 Aug 02:16:14 02:20:11 23° 10° (N) 02:24:09 437.568
DUCHIFAT 1 18 Aug 02:17:12 02:21:19 56° 304° (WNW) 02:25:24 145.980
TIGRISAT 18 Aug 02:20:56 02:24:09 21° 333° (NNW) 02:27:22 435.000
SO-50 18 Aug 02:25:25 02:29:31 35° 154° (SSE) 02:33:38 436.795
